This demonstration page uses our WeatherBlox Daily Observations layout. Learn more.

Left ArrowRight Arrow

34.74481, -87.66753

Hourly Observations for April 21, 2017

Temp ( °F °C ) Dew Point ( °F °C ) Humidity (%) Winds ( mph kmh ) Pressure ( in mb ) Visibility ( mi km ) Precip ( " mm )
12:53 am 00:53 Partly Cloudy 70 21.1 59 15 68 68 SSW 6 9 30.01 1016 10 16 0.00 0.00
1:53 am 01:53 Mostly Clear 69 20.6 59 15 70 70 SSW 5 7 29.99 1016 10 16 0.00 0.00
2:53 am 02:53 Mostly Clear 66 18.9 59 15 78 78 Calm 29.98 1015 10 16 0.00 0.00
3:53 am 03:53 Clear 64 17.8 59 15 84 84 SSE 3 6 29.98 1015 10 16 0.00 0.00
4:53 am 04:53 Partly Cloudy 66 18.9 60 15.6 81 81 Calm 29.98 1015 10 16 0.00 0.00
5:53 am 05:53 Mostly Clear 67 19.4 61 16.1 81 81 SSW 6 9 29.99 1016 10 16 0.00 0.00
6:53 am 06:53 Sunny 66 18.9 61 16.1 84 84 Calm 30.00 1016 10 16 0.00 0.00
7:53 am 07:53 Sunny 69 20.6 63 17.2 81 81 WSW 7 11 30.00 1016 10 16 0.00 0.00
8:53 am 08:53 Sunny 75 23.9 65 18.3 71 71 W 7 11 29.99 1016 10 16 0.00 0.00
9:53 am 09:53 Mostly Sunny 77 25 65 18.3 66 66 W 8 13 29.99 1016 10 16 0.00 0.00
10:53 am 10:53 Mostly Sunny 80 26.7 66 18.9 62 62 SW 7 11 29.98 1015 10 16 0.00 0.00
11:53 am 11:53 Sunny 81 27.2 66 18.9 61 61 SSW 8 13 29.95 1014 10 16 0.00 0.00
12:53 pm 12:53 Sunny 82 27.8 63 17.2 53 53 SSW 9 15 29.91 1013 10 16 0.00 0.00
1:53 pm 13:53 Mostly Cloudy 79 26.1 65 18.3 62 62 WSW 15 24 29.89 1012 10 16 0.00 0.03
2:53 pm 14:53 Mostly Sunny 81 27.2 65 18.3 58 58 W 9 15 29.86 1011 10 16 0.00 0.00
3:53 pm 15:53 Mostly Cloudy with Light Rain 73 22.8 66 18.9 79 79 W 8 13 29.87 1012 10 16 0.00 0.03
4:53 pm 16:53 Partly Cloudy with Nearby Thunderstorms 74 23.3 67 19.4 79 79 NNW 7 11 29.87 1012 10 16 0.00 0.03
5:16 pm 17:16 Mostly Cloudy with Light Rain 73 22.8 66 18.9 79 79 NW 8 13 29.85 1011 10 16 0.00 0.03
5:53 pm 17:53 Mostly Sunny 74 23.3 65 18.3 74 74 WNW 6 9 29.88 1012 10 16 0.00 0.03
6:53 pm 18:53 Mostly Sunny 74 23.3 66 18.9 76 76 Calm 29.87 1012 10 16 0.00 0.00
7:53 pm 19:53 Clear 70 21.1 65 18.3 84 84 Calm 29.87 1012 10 16 0.00 0.00
8:53 pm 20:53 Clear 69 20.6 65 18.3 87 87 ENE 3 6 29.87 1011 10 16 0.00 0.00
9:53 pm 21:53 Mostly Cloudy 70 21.1 66 18.9 87 87 ENE 5 7 29.89 1012 10 16 0.00 0.00
10:01 pm 22:01 Mostly Cloudy with Nearby Thunderstorms 70 21.1 66 18.9 87 87 ENE 5 7 29.88 1012 10 16 0.00 0.03
10:15 pm 22:15 Cloudy with Thunderstorms 70 21.1 66 18.9 87 87 Calm 29.88 1012 6 10 0.00 0.03
10:46 pm 22:46 Cloudy with Nearby Thunderstorms 69 20.6 66 18.9 90 90 SW 7 11 29.88 1012 5 8 0.00 0.00
10:53 pm 22:53 Mostly Cloudy with Nearby Thunderstorms 69 20.6 66 18.9 90 90 S 6 9 29.88 1012 9 14 0.00 0.00
11:02 pm 23:02 Mostly Cloudy 69 20.6 66 18.9 90 90 S 6 9 29.88 1012 8 13 0.00 0.00
11:53 pm 23:53 Mostly Cloudy 69 20.6 66 18.9 90 90 NE 3 6 29.87 1012 7 11 0.00 0.00

Powered by AerisWeather